Wind_Speed
31 33 35 38 46 51 47 44 51 53 48 42 40 39 35 35 35 33 32 31 26 29 28 29 27 25 23 21 20 19 19 18 17 17 19 18 19 20 23 25 27 28 28
32 31 34 36 38 45 55 52 48 52 55 50 45 40 39 38 35 34 33 31 28 29 27 30 27 26 25 21 21 20 19 18 18 18 19 21 22 23 25 27 30 31 32
30 33 37 38 40 40 45 59 59 57 54 54 50 46 45 42 38 36 32 31 28 29 29 29 28 26 24 24 23 23 20 18 19 19 21 24 25 27 29 31 32 33 34
28 31 33 37 42 41 42 43 57 63 56 56 56 52 50 47 41 37 33 30 28 29 30 29 29 26 24 25 25 22 22 20 20 20 23 25 28 31 32 34 36 36 37
25 26 23 28 34 42 40 41 42 49 54 56 61 57 53 50 44 40 36 33 29 29 31 30 29 28 26 25 25 23 23 22 21 23 25 28 31 34 37 38 37 38 38
25 25 33 35 32 36 44 46 44 42 48 52 59 60 55 51 47 42 37 33 30 30 33 32 31 31 27 28 24 24 22 23 24 26 29 32 35 39 42 45 44 43 39
20 22 28 29 25 30 36 40 48 45 46 53 55 55 56 54 48 42 37 33 32 31 31 32 32 29 26 26 25 25 24 25 26 29 32 35 38 41 44 47 47 47 43
34 35 34 35 32 33 33 36 47 48 48 52 48 44 51 50 48 42 37 34 32 30 30 32 29 27 27 28 27 26 25 26 29 31 35 38 41 43 46 48 49 49 48
25 25 28 34 32 30 34 32 36 49 52 49 40 45 47 41 39 37 36 32 29 29 31 29 26 29 29 29 26 26 26 29 31 35 38 41 43 45 47 47 48 50 52
23 27 33 35 22 22 24 31 31 32 43 42 43 46 41 37 37 35 33 30 29 31 30 28 27 28 27 26 27 27 28 32 35 38 41 43 45 47 47 47 46 47 50
22 27 32 29 26 25 20 27 27 29 36 39 45 40 36 35 33 32 30 28 29 27 28 26 31 25 27 27 27 28 31 35 39 42 43 45 47 47 47 46 46 47 49
21 19 29 26 25 22 20 24 26 27 35 40 41 34 32 31 31 29 29 28 27 27 29 31 26 28 26 26 28 30 34 38 41 43 45 46 47 47 47 47 47 48 50
27 23 28 24 21 21 19 22 24 31 34 34 33 33 31 31 30 29 25 29 25 26 28 25 26 26 26 26 29 34 37 41 43 45 46 46 46 46 46 47 49 50 52
41 33 27 22 22 21 19 25 27 34 26 29 31 31 29 29 28 25 22 25 24 33 34 25 25 23 23 28 35 37 39 44 44 45 45 45 45 46 48 49 51 52 53
12 22 26 24 20 20 26 25 24 24 22 28 30 28 28 27 24 22 25 26 27 28 24 23 23 23 32 33 36 39 43 43 43 43 43 43 45 47 50 52 53 54 54
18 24 25 18 19 24 24 17 20 21 26 28 27 28 28 24 24 24 26 26 34 24 21 24 27 31 31 36 39 40 40 41 42 41 42 44 45 47 49 50 52 52 51
21 22 21 19 21 19 18 19 18 22 26 27 26 24 25 25 23 23 30 24 13 18 22 25 27 29 33 37 37 38 39 39 40 42 43 44 46 47 49 50 51 47 44
21 15 15 16 16 19 20 21 21 24 25 26 24 25 23 24 32 34 23 13 16 20 23 25 28 32 32 33 35 36 37 39 41 43 44 46 48 50 51 51 50 46 41
10 12 12 13 18 20 22 23 22 28 24 23 22 28 33 32 30 16 8 12 15 18 24 27 27 29 31 32 34 36 39 40 42 43 45 47 49 49 49 48 46 43 37
6 7 12 17 19 21 25 30 27 24 31 23 26 27 24 11 5 6 8 13 19 22 22 25 26 29 31 33 35 37 39 42 44 44 45 45 46 46 44 43 42 38 32
11 12 18 20 20 25 28 29 24 27 25 16 10 8 4 2 3 9 12 14 17 21 22 25 27 29 32 34 36 38 41 44 46 46 46 45 44 42 39 35 32 30 29
15 19 16 18 17 15 18 14 14 12 8 6 5 3 1 4 6 9 13 17 19 21 23 25 28 31 33 36 39 41 43 46 48 47 45 43 40 36 30 27 26 26 26
18 18 16 15 19 18 16 10 9 8 7 6 3 3 6 7 10 13 16 18 20 22 24 26 28 31 34 38 40 42 44 45 44 43 41 38 33 27 23 24 25 26 27
14 14 12 11 10 10 10 10 9 8 6 4 4 5 8 10 13 16 17 18 21 23 25 28 31 33 36 40 42 43 42 41 40 38 34 29 24 23 23 24 25 26 27
9 9 10 9 7 8 6 4 2 1 1 3 6 8 11 13 14 15 17 19 22 25 27 30 33 37 40 41 42 42 41 40 39 35 27 21 20 20 21 22 24 26 27
5 6 7 7 6 5 4 2 2 1 4 6 8 10 11 12 14 16 19 22 25 28 30 34 37 40 43 43 41 39 38 37 33 26 20 19 19 21 22 22 22 25 27
Wind_Direction
258 252 249 245 236 233 230 236 240 242 243 243 245 252 253 256 260 263 269 274 269 268 274 279 282 279 279 272 275 264 263 270 280 291 299 305 312 317 317 317 314 311 306
260 255 252 251 245 241 232 224 232 242 246 241 244 247 249 251 257 265 271 278 263 265 271 279 277 277 276 278 270 266 263 270 281 292 299 304 307 312 315 316 316 313 310
268 258 248 247 248 244 237 233 228 235 241 246 242 241 245 249 254 261 270 278 266 263 268 273 276 279 274 275 270 269 260 268 280 291 301 306 310 313 316 316 315 312 309
263 258 252 247 242 244 244 234 235 234 237 242 243 243 247 254 258 262 268 272 259 257 263 268 268 273 272 277 273 262 263 267 279 291 299 304 309 312 313 315 314 313 310
271 264 261 249 245 239 239 247 236 234 236 238 245 244 243 248 254 259 265 265 255 253 258 260 263 266 269 264 265 260 261 272 283 292 299 303 308 310 311 313 311 311 310
264 256 253 253 253 238 236 239 237 235 233 235 241 243 243 246 252 257 260 261 252 250 255 255 258 261 267 270 269 257 264 276 287 294 300 305 308 310 312 313 314 311 310
242 259 264 262 259 266 249 235 235 231 234 235 240 244 242 245 250 254 257 252 252 254 251 250 254 257 262 263 263 259 267 278 288 296 301 305 307 309 311 312 311 309 308
253 266 266 265 265 260 254 247 228 229 234 238 240 241 242 242 246 249 248 245 246 245 244 244 248 249 264 259 257 260 270 281 290 297 301 304 306 308 310 310 309 307 307
265 256 265 264 262 261 259 247 238 231 237 242 238 234 238 239 241 242 240 243 244 241 238 242 242 254 260 259 256 264 275 285 292 298 301 303 305 308 309 308 307 308 308
262 246 253 261 265 270 265 250 240 238 237 237 232 233 236 236 235 236 239 241 242 238 235 246 245 255 258 254 259 269 280 288 295 298 301 304 306 308 308 306 307 307 307
246 252 259 270 272 278 275 257 240 231 228 224 223 228 231 231 233 232 235 238 238 231 241 241 246 259 260 257 266 276 285 292 296 299 302 305 306 306 305 306 306 307 307
266 275 281 271 266 278 263 249 241 226 224 219 220 222 227 230 227 229 233 230 227 223 246 237 255 260 259 264 273 281 288 293 297 301 303 305 305 305 306 307 307 307 307
245 258 276 268 283 274 252 235 230 219 225 220 217 219 225 223 224 228 225 230 215 244 229 255 247 265 257 271 281 286 291 296 299 302 303 303 304 306 307 308 308 308 308
245 259 278 274 276 269 225 218 218 225 226 214 212 217 219 219 224 226 223 227 236 228 240 254 267 261 275 283 284 289 295 296 300 301 301 304 306 309 309 309 310 309 309
257 241 260 269 263 254 216 222 234 229 213 205 208 212 214 218 222 220 236 222 224 247 255 258 259 268 275 282 286 291 294 297 299 302 305 308 310 310 310 311 310 310 311
233 248 258 262 251 234 220 228 221 213 200 199 207 210 213 209 223 223 221 235 231 224 236 251 264 274 279 284 290 294 297 299 302 305 308 309 310 309 309 309 310 311 310
253 254 260 246 242 222 204 208 207 197 194 197 203 208 212 220 221 222 221 226 240 260 263 266 274 281 285 290 294 297 299 302 306 308 308 309 310 310 310 309 308 309 309
244 249 254 247 217 200 194 195 198 190 192 193 195 206 215 210 214 208 208 230 253 262 270 280 283 285 290 295 297 300 303 307 308 309 311 313 313 312 311 311 311 312 311
241 248 246 215 192 186 187 191 185 179 182 196 204 213 202 207 208 231 241 248 264 275 280 283 287 294 297 299 301 306 308 309 310 313 314 313 313 313 312 310 310 311 313
214 193 175 166 167 168 164 169 177 193 189 202 208 212 211 193 199 234 258 277 280 282 286 293 297 299 301 306 307 307 309 312 314 313 314 315 313 312 311 311 311 314 317
98 128 143 155 158 166 166 174 181 181 176 161 153 161 170 88 281 278 277 284 288 293 297 300 303 306 307 307 309 312 313 313 313 316 317 317 314 314 314 314 317 320 321
121 138 155 147 147 133 114 124 120 119 140 152 111 63 355 281 293 306 297 296 298 301 305 307 307 308 311 313 315 315 316 318 318 319 319 318 318 319 320 320 321 322 321
91 90 84 91 103 111 113 107 114 122 113 106 98 26 339 316 302 297 297 302 307 308 306 308 311 313 314 315 317 318 319 318 319 319 320 319 321 321 325 324 322 325 325
72 82 82 83 81 86 87 87 76 63 53 30 329 311 303 298 298 303 308 308 304 308 312 314 315 316 317 318 319 319 319 318 318 320 322 323 325 327 327 326 326 325 325
83 97 98 98 98 104 89 94 119 266 324 295 296 300 301 304 307 306 306 309 313 316 316 316 318 320 319 318 319 321 321 322 324 326 327 327 326 326 327 328 327 325 326
115 119 123 130 97 117 137 117 67 338 295 293 296 302 306 308 308 312 316 317 317 317 320 323 322 321 319 320 321 322 322 322 323 326 327 329 329 331 331 330 329 328 328
Height
3064 3066 3068 3071 3074 3078 3083 3086 3088 3089 3094 3097 3100 3102 3106 3106 3107 3110 3111 3113 3117 3116 3117 3117 3118 3119 3119 3119 3119 3118 3118 3118 3117 3116 3115 3115 3113 3112 3110 3107 3104 3102 3100
3054 3057 3059 3061 3064 3067 3071 3075 3078 3079 3082 3090 3094 3096 3096 3098 3101 3104 3105 3107 3110 3111 3112 3112 3113 3113 3113 3113 3113 3113 3113 3113 3112 3111 3110 3109 3110 3108 3105 3102 3099 3095 3092
3043 3046 3049 3051 3053 3056 3060 3065 3069 3072 3074 3077 3084 3087 3088 3091 3095 3098 3100 3101 3103 3105 3106 3106 3108 3108 3108 3108 3108 3108 3108 3108 3107 3106 3105 3103 3102 3100 3099 3096 3093 3090 3087
3035 3036 3037 3039 3042 3045 3049 3055 3060 3064 3067 3069 3071 3077 3081 3086 3088 3092 3094 3095 3097 3100 3100 3101 3102 3103 3103 3102 3103 3102 3103 3103 3102 3101 3099 3098 3096 3093 3092 3089 3085 3082 3078
3029 3030 3030 3031 3034 3037 3040 3043 3049 3054 3058 3060 3062 3068 3074 3077 3082 3085 3087 3089 3091 3093 3095 3095 3096 3097 3098 3097 3097 3097 3097 3097 3097 3095 3094 3092 3089 3086 3083 3082 3080 3075 3070
3025 3025 3025 3025 3026 3027 3030 3033 3037 3042 3047 3051 3053 3058 3066 3071 3076 3078 3081 3083 3085 3087 3088 3089 3090 3091 3092 3092 3092 3092 3092 3091 3091 3090 3088 3085 3082 3077 3073 3069 3067 3063 3062
3019 3019 3019 3018 3018 3021 3022 3024 3027 3031 3036 3039 3043 3049 3057 3063 3070 3072 3074 3076 3078 3080 3081 3083 3084 3085 3086 3086 3086 3086 3087 3086 3085 3083 3081 3078 3074 3070 3065 3059 3055 3051 3051
3014 3012 3012 3010 3012 3011 3012 3017 3018 3022 3026 3029 3037 3043 3043 3055 3063 3066 3068 3070 3071 3073 3075 3077 3079 3079 3079 3080 3081 3081 3081 3080 3079 3076 3074 3071 3067 3062 3057 3051 3044 3039 3036
3006 3005 3003 3002 3001 3003 3005 3008 3010 3014 3017 3023 3031 3032 3035 3046 3054 3058 3060 3062 3064 3066 3068 3072 3073 3074 3074 3074 3074 3075 3074 3073 3071 3069 3066 3063 3058 3053 3048 3042 3035 3027 3018
2999 2998 2995 2993 2997 2997 2996 3000 3001 3006 3009 3017 3021 3023 3032 3041 3046 3051 3054 3056 3058 3060 3063 3066 3067 3068 3067 3067 3068 3068 3067 3065 3063 3061 3057 3053 3048 3043 3037 3031 3025 3019 3010
2994 2991 2988 2990 2991 2992 2990 2993 2995 2998 3001 3006 3009 3019 3029 3035 3041 3045 3048 3050 3053 3055 3058 3060 3061 3061 3061 3062 3062 3061 3060 3058 3055 3051 3048 3043 3038 3032 3027 3020 3015 3009 3002
2988 2986 2981 2984 2986 2986 2984 2987 2988 2991 2993 2999 3007 3019 3026 3031 3036 3039 3042 3045 3048 3050 3053 3053 3053 3056 3056 3056 3055 3054 3053 3050 3047 3043 3038 3033 3027 3021 3015 3009 3004 2997 2990
2980 2977 2975 2979 2980 2980 2980 2982 2981 2986 2989 2998 3008 3017 3022 3026 3031 3034 3037 3041 3043 3045 3046 3048 3048 3049 3051 3050 3049 3047 3044 3041 3038 3033 3027 3022 3016 3010 3004 2998 2991 2985 2978
2970 2971 2970 2973 2975 2974 2976 2977 2976 2982 2990 2998 3006 3013 3018 3023 3027 3030 3032 3036 3038 3039 3039 3041 3043 3045 3044 3043 3042 3039 3036 3033 3028 3023 3017 3011 3005 2999 2993 2986 2979 2972 2965
2959 2962 2963 2967 2968 2969 2970 2972 2975 2982 2989 2996 3003 3009 3014 3019 3023 3026 3029 3031 3032 3034 3035 3037 3038 3037 3038 3036 3034 3031 3028 3023 3018 3013 3007 3001 2994 2988 2981 2973 2966 2959 2952
2956 2956 2959 2961 2962 2964 2966 2971 2975 2980 2987 2994 3001 3006 3010 3015 3019 3022 3025 3026 3026 3025 3029 3029 3031 3031 3030 3028 3025 3022 3018 3012 3007 3003 2997 2991 2985 2977 2970 2963 2955 2947 2939
2951 2953 2955 2955 2957 2959 2964 2970 2974 2980 2986 2993 2999 3004 3008 3012 3014 3018 3018 3018 3013 3021 3025 3026 3025 3024 3023 3019 3016 3012 3008 3003 2998 2992 2986 2980 2973 2966 2958 2951 2943 2938 2931
2947 2948 2949 2952 2954 2957 2962 2968 2974 2979 2985 2991 2996 3000 3003 3007 3009 3009 3009 3011 3017 3019 3020 3020 3018 3017 3015 3011 3007 3003 2998 2993 2988 2982 2975 2968 2961 2954 2946 2938 2930 2925 2919
2944 2946 2948 2950 2952 2956 2961 2967 2972 2979 2985 2990 2993 2996 2998 3002 3004 3007 3008 3013 3015 3015 3015 3014 3012 3009 3005 3003 2999 2994 2989 2984 2978 2972 2965 2958 2950 2941 2933 2926 2919 2914 2909
2945 2946 2948 2950 2953 2956 2962 2967 2974 2980 2984 2988 2993 2996 3000 3000 2999 3003 3008 3010 3011 3011 3009 3007 3004 3001 2998 2993 2990 2986 2980 2974 2967 2962 2955 2948 2939 2930 2924 2916 2908 2903 2898
2952 2952 2952 2955 2958 2962 2967 2971 2976 2978 2981 2987 2989 2991 2994 2997 3001 3005 3007 3007 3007 3005 3003 3000 2998 2994 2991 2986 2982 2977 2970 2963 2957 2951 2944 2937 2929 2921 2914 2907 2901 2896 2892
2955 2957 2960 2961 2962 2965 2968 2974 2977 2977 2985 2987 2991 2995 2998 3001 3002 3001 3002 3003 3001 2999 2997 2995 2991 2987 2983 2978 2973 2967 2960 2953 2945 2939 2932 2924 2918 2911 2906 2901 2896 2892 2887
2967 2966 2967 2968 2970 2974 2979 2982 2984 2987 2990 2992 2994 2995 2996 2997 2999 3000 3000 2998 2996 2994 2992 2989 2985 2981 2975 2969 2964 2957 2951 2944 2937 2930 2923 2916 2910 2905 2901 2896 2890 2885 2880
2972 2973 2974 2976 2977 2978 2981 2984 2986 2988 2990 2993 2995 2996 2997 2998 2998 2997 2996 2995 2992 2989 2986 2982 2977 2973 2967 2961 2955 2949 2942 2936 2928 2922 2916 2909 2904 2899 2895 2891 2885 2880 2876
2980 2980 2981 2982 2983 2985 2987 2989 2991 2992 2994 2996 2996 2996 2997 2996 2996 2995 2992 2990 2987 2983 2979 2975 2969 2964 2958 2953 2946 2939 2932 2925 2918 2912 2908 2904 2900 2896 2891 2887 2881 2877 2872
2984 2985 2986 2987 2988 2989 2991 2992 2993 2994 2995 2996 2996 2996 2995 2994 2992 2990 2988 2985 2981 2977 2972 2967 2961 2955 2949 2942 2937 2931 2924 2917 2911 2906 2903 2899 2895 2891 2887 2883 2880 2874 2868